Flag for Norway Weather past 2 weeks in Stavanger, Norway

48 °F

Passing clouds.

Feels Like: 48 °F
Forecast: 49 / 54 °F
Wind: 1 mph from North

Location: Stavanger / Sola

Current Time: Oct 10, 2015 at 3:45:30 AM

Latest Report: Oct 10, 2015 at 2:50 AM

Visibility: N/A

Pressure: 30.30 "Hg

Humidity: 94%

Dew point: 46 °F

Location of StavangerLocation

Historic Weather in Stavanger — Graph


Stavanger temperature yesterday

Maximum temperature yesterday: 54 °F (at 1:20 PM)
Minimum temperature yesterday: 48 °F (at 12:20 AM)
Average temperature yesterday: 51 °F

Past Weeks' High & Low Weather Summary

High63 °F (Oct 5, 2:20 PM)100% (Sep 27, 2:50 AM)30.72 "Hg (Sep 27, 2:50 AM)
Low41 °F (Oct 5, 5:50 AM)47% (Oct 6, 10:20 PM)29.68 "Hg (Sep 25, 4:50 AM)
Average54 °F77%30.22 "Hg
* Reported Sep 25 2:50 AM — Oct 10 2:50 AM, Stavanger, Weather by CustomWeather, © 2015

Note: Actual official high and low records may vary slightly from our data, if they occured in-between our weather recording intervals... More about our weather records


Stavanger weather history for previous 24 hours

Time TempWeatherWind HumidityBarometerVisibility
2:50 AM
Sat, Oct 10
48 °FPassing clouds.1 mph94%30.30 "HgN/A
1:50 AM48 °FPassing clouds.1 mph94%30.30 "HgN/A
12:50 AM50 °FPartly cloudy.3 mph88%30.30 "Hg6 mi
12:20 AM50 °FPassing clouds.1 mph82%30.30 "HgN/A
11:50 PM
Fri, Oct 9
50 °FPassing clouds.1 mph82%30.30 "HgN/A
10:50 PM50 °FPassing clouds.3 mph88%30.27 "HgN/A
10:20 PM52 °FPassing clouds.2 mph77%30.27 "HgN/A
9:50 PM52 °FPassing clouds.3 mph72%30.27 "HgN/A
9:20 PM52 °FPassing clouds.5 mph72%30.27 "HgN/A
8:50 PM52 °FPassing clouds.1 mph72%30.27 "HgN/A
8:20 PM52 °FPassing clouds.1 mph72%30.27 "HgN/A
7:50 PM52 °FPassing clouds.1 mph72%30.24 "HgN/A
7:20 PM52 °FPartly sunny.No wind72%30.27 "HgN/A
6:50 PM54 °FPartly sunny.2 mph72%30.24 "HgN/A
6:20 PM54 °FPartly sunny.1 mph63%30.24 "HgN/A
5:50 PM54 °FPartly sunny.5 mph67%30.24 "HgN/A
5:20 PM54 °FPartly sunny.5 mph63%30.24 "HgN/A
4:50 PM54 °FPartly sunny.6 mph63%30.24 "HgN/A
4:20 PM54 °FPartly sunny.6 mph63%30.24 "HgN/A
3:50 PM54 °FPartly sunny.6 mph63%30.24 "HgN/A
3:20 PM54 °FPartly sunny.6 mph63%30.24 "HgN/A
2:50 PM54 °FPartly sunny.5 mph63%30.24 "HgN/A
2:20 PM54 °FPartly sunny.7 mph63%30.24 "HgN/A
1:50 PM54 °FPartly sunny.7 mph67%30.24 "HgN/A
1:20 PM54 °FPartly sunny.5 mph67%30.21 "HgN/A
12:50 PM52 °FPartly sunny.5 mph72%30.24 "HgN/A
12:20 PM52 °FPartly sunny.5 mph72%30.24 "HgN/A
11:50 AM52 °FPartly sunny.5 mph72%30.24 "HgN/A
11:20 AM52 °FBroken clouds.5 mph77%30.21 "HgN/A
10:50 AM52 °FPartly sunny.3 mph72%30.21 "HgN/A
10:20 AM50 °FPartly sunny.1 mph82%30.21 "HgN/A
9:50 AM50 °FBroken clouds.2 mph94%30.21 "HgN/A
9:20 AM48 °FPartly sunny.1 mph100%30.21 "HgN/A
8:50 AM48 °FLight rain. Passing clouds.3 mph94%30.21 "HgN/A
8:20 AM48 °FPassing clouds.5 mph94%30.21 "HgN/A
7:50 AM48 °FLight rain. Passing clouds.2 mph94%30.18 "HgN/A
7:20 AM48 °FPassing clouds.2 mph94%30.18 "HgN/A
6:50 AM48 °FPassing clouds.1 mph94%30.18 "HgN/A
6:20 AM48 °FPassing clouds.2 mph87%30.18 "HgN/A
5:50 AM48 °FLight rain. Passing clouds.2 mph87%30.18 "HgN/A
5:20 AM48 °FPassing clouds.5 mph87%30.18 "HgN/A
4:50 AM48 °FPassing clouds.6 mph87%30.18 "HgN/A
3:50 AM48 °FLight rain. Partly cloudy.1 mph87%30.18 "HgN/A
Weather by CustomWeather, © 2015

See weather overviewHow to use our weather pages